Location: Potomac
(46.8816°N, 113.5795°W)
Time: 13:18:17
(UTC+00:00)

AO-91 - Pass Details

Date: 02 July 2022
Orbit: 450 x 797 km, 97.7° (Epoch: 12 August)

Event Time Altitude Azimuth Distance (km) Brightness Sun altitude
Rises 06:02:59 0° 19° (NNE) 2,522 ? -16.8°
Reaches altitude 10° 06:05:09 10° 27° (NNE) 1,615 ? -17.0°
Maximum altitude 06:08:24 41° 99° (E) 671 ? -17.2°
Enters shadow 06:08:48 39° 119° (ESE) 693 ? -17.2°
